EW6513 Weather Reports


time (UTC)temp
F
wind
direction
speed
knots
gust
knots
rain 1hr
in
rain 24hr
in
rain mn
in
humidity
%
barometer
mb
20260504004428 47 286 0.9 3.5 0.00 0.00 0.00 49 1010.0
20260504003921 48 287 0.9 2.6 0.00 0.00 0.00 48 1010.0
20260504003416 48 284 0.9 3.5 0.00 0.00 0.00 48 1009.9
20260504002909 49 298 1.7 3.5 0.00 0.00 0.00 47 1009.9
20260504002403 49 273 1.7 5.2 0.00 0.00 0.00 49 1009.8
20260504001858 49 281 1.7 6.1 0.00 0.00 0.00 46 1009.8
20260504001352 50 264 2.6 6.1 0.00 0.00 0.00 44 1009.7
20260504000845 50 266 2.6 6.1 0.00 0.00 0.00 44 1009.7
20260504000340 51 305 2.6 7.8 0.00 0.00 0.00 43 1009.5
20260503235834 52 300 3.5 7.8 0.00 0.00 0.00 43 1009.4
20260503235328 52 307 3.5 8.7 0.00 0.00 0.00 42 1009.3
20260503234822 53 281 4.3 12.2 0.00 0.00 0.00 38 1009.3
20260503234315 53 273 4.3 13.9 0.00 0.00 0.00 39 1009.3
20260503233809 54 258 4.3 13.9 0.00 0.00 0.00 37 1009.2
20260503233304 54 286 4.3 9.6 0.00 0.00 0.00 38 1009.1
20260503232757 55 283 4.3 11.3 0.00 0.00 0.00 36 1009.1
20260503232523 55 325 4.3 11.3 0.00 0.00 0.00 35 1009.1
20260503231746 56 277 6.1 13.9 0.00 0.00 0.00 34 1009.1
20260503231240 56 324 7.8 14.8 0.00 0.00 0.00 33 1009.1
20260503230734 56 344 7.0 14.8 0.00 0.00 0.00 33 1009.1
20260503230228 56 286 4.3 11.3 0.00 0.00 0.00 34 1009.0
20260503225722 56 331 4.3 11.3 0.00 0.00 0.00 34 1008.9
20260503225215 56 325 5.2 11.3 0.00 0.00 0.00 33 1008.9
20260503224709 56 306 4.3 10.4 0.00 0.00 0.00 34 1008.8
20260503224203 55 307 3.5 9.6 0.00 0.00 0.00 34 1008.8
20260503223657 55 263 3.5 8.7 0.00 0.00 0.00 37 1008.8
20260503223154 56 322 5.2 13.0 0.00 0.00 0.00 33 1008.7
20260503222655 56 348 7.0 16.5 0.00 0.00 0.00 33 1008.8
20260503222155 56 317 6.1 16.5 0.00 0.00 0.00 33 1008.8
20260503221656 57 300 5.2 13.0 0.00 0.00 0.00 33 1008.8
20260503221155 57 309 6.1 17.4 0.00 0.00 0.00 32 1008.8
20260503220654 58 318 5.2 17.4 0.00 0.00 0.00 31 1008.8
20260503220156 58 325 4.3 10.4 0.00 0.00 0.00 33 1008.7
20260503215655 58 262 5.2 13.9 0.00 0.00 0.00 33 1008.6
20260503215430 58 41 7.0 13.9 0.00 0.00 0.00 30 1008.7
20260503214927 58 324 6.1 13.9 0.00 0.00 0.00 33 1008.7
20260503214154 58 290 6.1 13.9 0.00 0.00 0.00 31 1008.7
20260503213654 58 328 7.0 13.9 0.00 0.00 0.00 33 1008.7
20260503213426 58 275 7.0 13.9 0.00 0.00 0.00 30 1008.7
20260503212655 58 355 7.8 17.4 0.00 0.00 0.00 32 1008.7
20260503212429 58 329 8.7 17.4 0.00 0.00 0.00 31 1008.5
20260503211657 58 313 7.0 20.0 0.00 0.00 0.00 31 1008.7
20260503211158 58 309 7.8 20.0 0.00 0.00 0.00 31 1008.7
20260503210652 58 311 8.7 19.1 0.00 0.00 0.00 31 1008.7
20260503210144 58 330 10.4 21.7 0.00 0.00 0.00 32 1008.7
20260503210139 58 296 9.6 21.7 0.00 0.00 0.00 30 1008.7
20260503205402 58 320 8.7 20.0 0.00 0.00 0.00 31 1008.7
20260503204630 58 336 8.7 20.0 0.00 0.00 0.00 32 1008.5
20260503204130 58 311 8.7 20.9 0.00 0.00 0.00 31 1008.6
20260503203901 57 355 9.6 20.9 0.00 0.00 0.00 31 1008.7
20260503203753 57 329 9.6 20.9 0.00 0.00 0.00 32 1008.7
20260503202630 57 9 9.6 24.3 0.00 0.00 0.00 31 1008.8
20260503202130 58 325 10.4 24.3 0.00 0.00 0.00 31 1008.8
20260503201631 57 279 10.4 23.5 0.00 0.00 0.00 32 1008.7
20260503201131 57 285 10.4 21.7 0.00 0.00 0.00 30 1008.9
20260503200632 57 303 11.3 22.6 0.00 0.00 0.00 31 1009.0
20260503200127 57 274 11.3 22.6 0.00 0.00 0.00 31 1009.0
20260503195626 57 5 9.6 17.4 0.00 0.00 0.00 32 1009.1
20260503195357 58 44 8.7 16.5 0.00 0.00 0.00 32 1008.9
20260503194626 57 331 8.7 18.2 0.00 0.00 0.00 32 1008.9
20260503194131 58 355 7.8 18.2 0.00 0.00 0.00 30 1008.9
20260503194126 56 294 8.7 18.2 0.00 0.00 0.00 33 1009.0
20260503193127 58 304 8.7 18.2 0.00 0.00 0.00 31 1009.1
20260503192627 57 317 7.8 18.2 0.00 0.00 0.00 33 1009.0
20260503192128 58 350 7.0 17.4 0.00 0.00 0.00 32 1009.2
20260503191621 58 312 8.7 17.4 0.00 0.00 0.00 36 1009.1
20260503191346 57 344 8.7 18.2 0.00 0.00 0.00 34 1009.1
20260503190607 56 279 9.6 22.6 0.00 0.00 0.00 38 1009.3
20260503185825 54 323 9.6 19.1 0.00 0.00 0.00 35 1009.5
20260503185049 55 302 7.8 19.1 0.00 0.00 0.00 37 1009.7
20260503184543 56 341 7.0 16.5 0.00 0.00 0.00 34 1009.5
20260503184308 57 5 8.7 22.6 0.00 0.00 0.00 35 1009.6
20260503183531 56 281 9.6 22.6 0.00 0.00 0.00 36 1009.6
20260503183025 56 314 8.7 18.2 0.00 0.00 0.00 39 1009.5
20260503182519 55 17 9.6 20.0 0.00 0.00 0.00 36 1009.6
20260503182013 55 332 10.4 20.0 0.00 0.00 0.00 35 1009.8
20260503181737 56 0 9.6 22.6 0.00 0.00 0.00 34 1009.6
20260503181001 56 310 10.4 22.6 0.00 0.00 0.00 36 1009.8
20260503180455 55 265 10.4 21.7 0.00 0.00 0.00 39 1009.6
20260503175948 56 281 9.6 20.9 0.00 0.00 0.00 38 1009.7
20260503175442 55 355 10.4 20.9 0.00 0.00 0.00 36 1009.7
20260503174936 55 327 10.4 22.6 0.00 0.00 0.00 38 1009.7
20260503174430 54 266 10.4 22.6 0.00 0.00 0.00 40 1009.7
20260503173924 54 312 8.7 19.1 0.00 0.00 0.00 36 1009.9
20260503173418 55 313 7.8 15.6 0.00 0.00 0.00 39 1009.9
20260503172913 55 319 8.7 19.1 0.00 0.00 0.00 41 1009.9
20260503172407 54 37 7.8 19.1 0.00 0.00 0.00 38 1009.9
20260503171901 55 306 7.8 18.2 0.00 0.00 0.00 41 1010.1
20260503171625 53 330 9.6 18.2 0.00 0.00 0.00 42 1010.0
20260503170849 53 5 9.6 20.0 0.00 0.00 0.00 42 1010.1
20260503170343 52 335 8.7 20.0 0.00 0.00 0.00 41 1010.2
20260503150628 47 323 5.2 11.3 0.00 0.00 0.00 47 1010.7
20260503150359 47 324 6.1 13.9 0.00 0.00 0.00 48 1010.7
20260503140128 50 324 7.0 14.8 0.00 0.00 0.00 51 1010.6
20260503131128 47 31 7.8 16.5 0.00 0.00 0.00 51 1010.4
20260503130627 46 344 9.6 16.5 0.00 0.00 0.00 58 1010.4
20260503130125 45 304 8.7 15.6 0.00 0.00 0.00 55 1010.4
20260503120111 42 344 8.7 19.1 0.00 0.00 0.00 65 1010.4
20260503110611 40 348 6.1 11.3 0.00 0.00 0.00 67 1009.9
20260503110111 40 306 6.1 11.3 0.00 0.00 0.00 67 1009.8
20260503100249 40 12 7.8 13.0 0.00 0.00 0.00 65 1009.1
20260503090411 41 338 7.8 13.9 0.00 0.00 0.00 63 1008.8
20260503081333 42 10 4.3 12.2 0.00 0.01 0.00 60 1008.8
20260503080833 42 333 5.2 12.2 0.00 0.01 0.00 59 1008.8
20260503080332 42 42 5.2 12.2 0.00 0.01 0.00 59 1008.8
20260503072603 42 344 4.3 11.3 0.00 0.01 0.00 59 1008.7
20260503071832 43 313 3.5 11.3 0.00 0.01 0.00 59 1008.7
20260503071333 43 329 3.5 8.7 0.00 0.01 0.00 59 1008.7
20260503070834 43 23 3.5 8.7 0.00 0.01 0.00 59 1008.7
20260503070328 43 29 4.3 13.9 0.00 0.01 0.00 58 1008.7
20260503060308 44 346 2.6 7.8 0.00 0.01 0.00 57 1008.9
20260503054245 44 0 3.5 11.3 0.00 0.01 0.00 55 1009.0
20260503054011 44 28 4.3 8.7 0.00 0.01 0.00 56 1009.0
20260503053233 44 23 5.2 12.2 0.00 0.01 0.00 55 1008.9
20260503052959 44 32 5.2 12.2 0.00 0.01 0.00 55 1009.0
20260503052220 45 338 5.2 11.3 0.00 0.01 0.00 54 1009.0
20260503051714 45 26 4.3 11.3 0.00 0.01 0.00 53 1009.0
20260503051209 45 355 5.2 11.3 0.00 0.01 0.00 53 1009.0
20260503050934 45 15 6.1 11.3 0.00 0.01 0.00 53 1009.0
20260503050156 45 336 6.1 13.9 0.00 0.01 0.00 53 1009.1
20260503045921 45 339 5.2 13.9 0.00 0.01 0.00 52 1009.2
20260503045144 45 348 5.2 12.2 0.00 0.01 0.00 52 1009.1
20260503044639 45 350 4.3 12.2 0.00 0.01 0.00 52 1009.2
20260503044133 45 355 3.5 9.6 0.00 0.01 0.00 52 1009.2
20260503043627 45 29 3.5 9.6 0.00 0.01 0.00 52 1009.3
20260503043121 46 25 4.3 8.7 0.00 0.01 0.00 52 1009.3
20260503042846 46 0 4.3 8.7 0.00 0.01 0.00 51 1009.4
20260503042110 46 355 5.2 10.4 0.00 0.01 0.00 51 1009.3
20260503041841 46 323 6.1 12.2 0.00 0.01 0.00 51 1009.4
20260503041109 46 26 5.2 12.2 0.00 0.01 0.00 51 1009.5
20260503040611 46 19 5.2 10.4 0.00 0.01 0.00 51 1009.4
20260503040110 46 0 6.1 11.3 0.00 0.01 0.00 51 1009.4
20260503035609 46 351 6.1 11.3 0.00 0.01 0.01 50 1009.4
20260503035109 46 346 5.2 11.3 0.00 0.01 0.01 50 1009.6
20260503034609 46 343 4.3 9.6 0.00 0.01 0.01 51 1009.7
20260503034342 46 355 4.3 9.6 0.00 0.01 0.01 50 1009.6
20260503033607 46 355 4.3 9.6 0.00 0.01 0.01 51 1009.5
20260503033107 46 346 5.2 9.6 0.00 0.01 0.01 51 1009.5
20260503032840 46 350 4.3 9.6 0.00 0.01 0.01 51 1009.5
20260503032344 46 355 4.3 8.7 0.00 0.01 0.01 51 1009.5
20260503032109 46 355 4.3 8.7 0.00 0.01 0.01 51 1009.5
20260503031108 46 346 4.3 8.7 0.00 0.01 0.01 51 1009.6
20260503030607 46 13 3.5 8.7 0.00 0.01 0.01 51 1009.5
20260503030109 46 344 3.5 7.8 0.00 0.01 0.01 52 1009.7
20260503025607 46 355 3.5 10.4 0.00 0.01 0.01 52 1009.7
20260503025107 46 26 3.5 10.4 0.00 0.01 0.01 53 1009.7
20260503024608 46 346 2.6 7.0 0.00 0.01 0.01 51 1009.7
20260503024107 46 16 2.6 7.0 0.00 0.01 0.01 51 1009.7
20260503023607 46 0 3.5 7.8 0.00 0.01 0.01 51 1009.7
20260503023338 46 5 3.5 7.8 0.00 0.01 0.01 49 1009.6
20260503022607 46 10 3.5 7.8 0.00 0.01 0.01 50 1009.8
20260503022339 47 34 4.3 11.3 0.00 0.01 0.01 49 1009.7
20260503021607 47 337 4.3 11.3 0.00 0.01 0.01 49 1009.7
20260503021108 47 355 4.3 7.0 0.00 0.01 0.01 48 1009.6
20260503020838 47 30 3.5 7.0 0.00 0.01 0.01 48 1009.7
20260503020107 47 348 3.5 8.7 0.00 0.01 0.01 48 1009.7
20260503015608 48 17 4.3 8.7 0.00 0.01 0.01 47 1009.7
20260503015107 47 25 3.5 8.7 0.00 0.01 0.01 49 1009.8
20260503014608 47 0 2.6 6.1 0.00 0.01 0.01 49 1009.9
20260503014338 47 355 2.6 6.1 0.00 0.01 0.01 49 1009.9
20260503013608 48 346 2.6 4.3 0.00 0.01 0.01 48 1009.8
20260503013102 48 19 2.6 7.0 0.00 0.01 0.01 47 1009.9
20260503012828 48 5 3.5 7.8 0.00 0.01 0.01 46 1009.9
20260503012321 48 355 3.5 7.8 0.00 0.01 0.01 46 1009.9
20260503011543 48 5 3.5 7.0 0.00 0.01 0.01 47 1009.7
20260503011308 49 19 3.5 7.0 0.00 0.01 0.01 46 1009.5
20260503010529 48 35 3.5 7.0 0.00 0.01 0.01 48 1009.7
20260503010024 48 38 3.5 7.0 0.00 0.01 0.01 47 1009.7
20260503005519 48 28 2.6 7.0 0.00 0.01 0.01 49 1009.4
20260503005514 48 22 1.7 4.3 0.00 0.01 0.01 49 1009.4